| time (UTC) | temp F | wind direction | speed MPH | gust MPH | rain 1hr in | rain 24hr in | rain mn in | humidity % | barometer mb |
| 20260901185050 | 89 | 260 | 2.0 | 8.0 | 0.00 | 0.01 | 0.01 | 69 | 1014.6 |
| 20260901184550 | 89 | 226 | 3.0 | 8.0 | 0.00 | 0.01 | 0.01 | 70 | 1014.6 |
| 20260901184053 | 88 | 223 | 3.0 | 7.0 | 0.00 | 0.01 | 0.01 | 71 | 1014.7 |
| 20260901183808 | 88 | 188 | 2.0 | 7.0 | 0.00 | 0.01 | 0.01 | 70 | 1014.8 |
| 20260901183050 | 88 | 208 | 3.0 | 8.0 | 0.00 | 0.01 | 0.01 | 72 | 1014.8 |
| 20260901182546 | 88 | 209 | 3.0 | 8.0 | 0.00 | 0.01 | 0.01 | 70 | 1014.8 |
| 20260901182044 | 89 | 245 | 3.0 | 8.0 | 0.00 | 0.01 | 0.01 | 72 | 1014.8 |
| 20260901181545 | 88 | 200 | 3.0 | 11.0 | 0.00 | 0.01 | 0.01 | 70 | 1014.8 |
| 20260901181047 | 88 | 221 | 3.0 | 11.0 | 0.00 | 0.01 | 0.01 | 74 | 1014.7 |
| 20260901180805 | 88 | 218 | 3.0 | 7.0 | 0.00 | 0.01 | 0.01 | 74 | 1014.7 |
| 20260901180100 | 87 | 207 | 3.0 | 6.0 | 0.00 | 0.01 | 0.01 | 71 | 1014.7 |
| 20260901175544 | 87 | 224 | 3.0 | 12.0 | 0.00 | 0.01 | 0.01 | 73 | 1014.7 |
| 20260901175044 | 87 | 212 | 4.0 | 12.0 | 0.00 | 0.01 | 0.01 | 74 | 1014.7 |
| 20260901174546 | 87 | 233 | 3.0 | 8.0 | 0.00 | 0.01 | 0.01 | 72 | 1014.8 |
| 20260901174044 | 87 | 283 | 3.0 | 8.0 | 0.00 | 0.01 | 0.01 | 71 | 1014.7 |
| 20260901173548 | 87 | 196 | 3.0 | 7.0 | 0.00 | 0.01 | 0.01 | 72 | 1014.7 |
| 20260901173044 | 87 | 236 | 3.0 | 9.0 | 0.00 | 0.01 | 0.01 | 72 | 1014.8 |
| 20260901172810 | 87 | 205 | 4.0 | 9.0 | 0.00 | 0.01 | 0.01 | 73 | 1014.8 |
| 20260901172305 | 87 | 211 | 3.0 | 9.0 | 0.00 | 0.01 | 0.01 | 74 | 1014.9 |
| 20260901171545 | 87 | 234 | 2.0 | 5.0 | 0.00 | 0.01 | 0.01 | 77 | 1014.9 |
| 20260901171306 | 86 | 271 | 2.0 | 6.0 | 0.00 | 0.01 | 0.01 | 75 | 1015.1 |
| 20260901170559 | 86 | 202 | 2.0 | 6.0 | 0.00 | 0.01 | 0.01 | 81 | 1015.2 |
| 20260901170059 | 85 | 192 | 2.0 | 5.0 | 0.00 | 0.01 | 0.01 | 81 | 1015.3 |
| 20260901170027 | 85 | 191 | 2.0 | 5.0 | 0.00 | 0.01 | 0.01 | 80 | 1015.3 |
| 20260901165040 | 85 | 228 | 2.0 | 5.0 | 0.00 | 0.01 | 0.01 | 81 | 1015.3 |
| 20260901164541 | 84 | 157 | 2.0 | 6.0 | 0.00 | 0.01 | 0.01 | 83 | 1015.3 |
| 20260901164043 | 83 | 163 | 1.0 | 6.0 | 0.00 | 0.01 | 0.01 | 84 | 1015.5 |
| 20260901163758 | 83 | 219 | 0.0 | 2.0 | 0.00 | 0.01 | 0.01 | 85 | 1015.6 |
| 20260901163039 | 82 | 219 | 0.0 | 2.0 | 0.00 | 0.01 | 0.01 | 84 | 1015.6 |
| 20260901162757 | 82 | 219 | 0.0 | 0.0 | 0.00 | 0.01 | 0.01 | 84 | 1015.7 |
| 20260901162306 | 81 | 219 | 0.0 | 0.0 | 0.00 | 0.01 | 0.01 | 87 | 1015.8 |
| 20260901161546 | 81 | 219 | 0.0 | 0.0 | 0.00 | 0.01 | 0.01 | 86 | 1015.8 |
| 20260901161312 | 81 | 213 | 0.0 | 0.0 | 0.00 | 0.01 | 0.01 | 85 | 1015.9 |
| 20260901160758 | 81 | 213 | 0.0 | 0.0 | 0.00 | 0.01 | 0.01 | 84 | 1015.9 |
| 20260901160048 | 82 | 213 | 0.0 | 1.0 | 0.00 | 0.01 | 0.01 | 83 | 1015.9 |
| 20260901155536 | 81 | 213 | 0.0 | 1.0 | 0.00 | 0.01 | 0.01 | 84 | 1015.8 |
| 20260901155040 | 81 | 213 | 0.0 | 1.0 | 0.00 | 0.01 | 0.01 | 84 | 1015.8 |
| 20260901154533 | 81 | 213 | 0.0 | 0.0 | 0.00 | 0.01 | 0.01 | 84 | 1015.8 |
| 20260901154032 | 81 | 213 | 0.0 | 1.0 | 0.00 | 0.01 | 0.01 | 85 | 1015.8 |
| 20260901153534 | 81 | 213 | 0.0 | 1.0 | 0.00 | 0.01 | 0.01 | 86 | 1015.8 |
| 20260901153033 | 81 | 213 | 0.0 | 2.0 | 0.00 | 0.01 | 0.01 | 86 | 1015.9 |
| 20260901152534 | 81 | 213 | 0.0 | 3.0 | 0.00 | 0.01 | 0.01 | 84 | 1015.9 |
| 20260901152041 | 81 | 213 | 0.0 | 3.0 | 0.00 | 0.01 | 0.01 | 84 | 1015.8 |
| 20260901151533 | 81 | 213 | 1.0 | 3.0 | 0.00 | 0.01 | 0.01 | 84 | 1015.9 |
| 20260901151032 | 81 | 213 | 1.0 | 4.0 | 0.00 | 0.01 | 0.01 | 82 | 1015.9 |
| 20260901150530 | 81 | 213 | 1.0 | 5.0 | 0.00 | 0.01 | 0.01 | 83 | 1015.9 |
| 20260901150300 | 81 | 213 | 1.0 | 5.0 | 0.00 | 0.01 | 0.01 | 82 | 1015.9 |
| 20260901145530 | 82 | 212 | 1.0 | 4.0 | 0.00 | 0.01 | 0.01 | 82 | 1016.0 |
| 20260901145033 | 82 | 211 | 2.0 | 7.0 | 0.00 | 0.01 | 0.01 | 83 | 1016.0 |
| 20260901144534 | 81 | 211 | 3.0 | 7.0 | 0.00 | 0.01 | 0.01 | 83 | 1016.0 |
| 20260901144036 | 82 | 260 | 3.0 | 6.0 | 0.00 | 0.01 | 0.01 | 83 | 1015.9 |
| 20260901143528 | 82 | 214 | 2.0 | 6.0 | 0.00 | 0.01 | 0.01 | 85 | 1016.0 |
| 20260901143035 | 81 | 209 | 2.0 | 6.0 | 0.00 | 0.01 | 0.01 | 86 | 1015.9 |
| 20260901142524 | 80 | 204 | 2.0 | 5.0 | 0.00 | 0.01 | 0.01 | 87 | 1015.9 |
| 20260901142031 | 79 | 197 | 1.0 | 3.0 | 0.00 | 0.01 | 0.01 | 87 | 1015.9 |
| 20260901141747 | 79 | 195 | 2.0 | 5.0 | 0.00 | 0.01 | 0.01 | 88 | 1016.0 |
| 20260901141035 | 79 | 196 | 2.0 | 6.0 | 0.00 | 0.01 | 0.01 | 89 | 1015.9 |
| 20260901140742 | 78 | 176 | 2.0 | 6.0 | 0.00 | 0.01 | 0.01 | 91 | 1015.9 |
| 20260901140028 | 78 | 163 | 1.0 | 3.0 | 0.00 | 0.01 | 0.01 | 91 | 1016.0 |
| 20260901135745 | 77 | 288 | 1.0 | 3.0 | 0.00 | 0.01 | 0.01 | 91 | 1016.2 |
| 20260901135019 | 77 | 288 | 0.0 | 3.0 | 0.00 | 0.01 | 0.01 | 92 | 1016.2 |
| 20260901134518 | 76 | 111 | 0.0 | 0.0 | 0.00 | 0.01 | 0.01 | 92 | 1016.2 |
| 20260901134016 | 76 | 112 | 0.0 | 0.0 | 0.00 | 0.01 | 0.01 | 93 | 1016.2 |
| 20260901133516 | 75 | 112 | 0.0 | 0.0 | 0.00 | 0.01 | 0.01 | 93 | 1016.1 |
| 20260901133015 | 75 | 112 | 0.0 | 0.0 | 0.00 | 0.01 | 0.01 | 93 | 1016.1 |
| 20260901132520 | 75 | 112 | 0.0 | 0.0 | 0.00 | 0.01 | 0.01 | 93 | 1016.1 |
| 20260901132243 | 75 | 112 | 0.0 | 0.0 | 0.00 | 0.01 | 0.01 | 93 | 1016.1 |
| 20260901131521 | 74 | 112 | 0.0 | 0.0 | 0.00 | 0.01 | 0.01 | 93 | 1016.1 |
| 20260901131021 | 74 | 112 | 0.0 | 0.0 | 0.00 | 0.01 | 0.01 | 93 | 1016.2 |
| 20260901130519 | 74 | 112 | 0.0 | 0.0 | 0.00 | 0.01 | 0.01 | 93 | 1016.3 |
| 20260901130030 | 74 | 112 | 0.0 | 0.0 | 0.00 | 0.01 | 0.01 | 93 | 1016.2 |
| 20260901125530 | 74 | 112 | 0.0 | 0.0 | 0.00 | 0.01 | 0.01 | 93 | 1016.2 |
| 20260901125015 | 74 | 112 | 0.0 | 0.0 | 0.00 | 0.01 | 0.01 | 94 | 1016.3 |
| 20260901124519 | 74 | 112 | 0.0 | 0.0 | 0.00 | 0.01 | 0.01 | 94 | 1016.3 |
| 20260901124015 | 74 | 112 | 0.0 | 0.0 | 0.00 | 0.01 | 0.01 | 94 | 1016.4 |
| 20260901123515 | 74 | 112 | 0.0 | 0.0 | 0.00 | 0.01 | 0.01 | 94 | 1016.4 |
| 20260901123234 | 73 | 112 | 0.0 | 0.0 | 0.00 | 0.01 | 0.01 | 94 | 1016.5 |
| 20260901122512 | 73 | 112 | 0.0 | 0.0 | 0.00 | 0.01 | 0.01 | 94 | 1016.4 |
| 20260901122012 | 73 | 112 | 0.0 | 0.0 | 0.00 | 0.01 | 0.01 | 94 | 1016.3 |
| 20260901121511 | 73 | 112 | 0.0 | 0.0 | 0.00 | 0.01 | 0.01 | 94 | 1016.3 |
| 20260901121235 | 73 | 112 | 0.0 | 0.0 | 0.00 | 0.01 | 0.01 | 94 | 1016.3 |
| 20260901120512 | 73 | 112 | 0.0 | 0.0 | 0.00 | 0.01 | 0.01 | 94 | 1016.2 |
| 20260901120009 | 73 | 112 | 0.0 | 0.0 | 0.00 | 0.01 | 0.01 | 94 | 1016.3 |
| 20260901115509 | 72 | 112 | 0.0 | 0.0 | 0.00 | 0.01 | 0.01 | 94 | 1016.3 |
| 20260901115010 | 72 | 112 | 0.0 | 0.0 | 0.00 | 0.01 | 0.01 | 94 | 1016.3 |
| 20260901114514 | 72 | 112 | 0.0 | 0.0 | 0.00 | 0.01 | 0.01 | 94 | 1016.4 |
| 20260901114016 | 72 | 112 | 0.0 | 0.0 | 0.00 | 0.01 | 0.01 | 94 | 1016.4 |
| 20260901113512 | 71 | 112 | 0.0 | 0.0 | 0.00 | 0.01 | 0.01 | 94 | 1016.6 |
| 20260901113004 | 71 | 112 | 0.0 | 0.0 | 0.00 | 0.01 | 0.01 | 94 | 1016.5 |
| 20260901112502 | 71 | 112 | 0.0 | 0.0 | 0.00 | 0.01 | 0.01 | 94 | 1016.5 |
| 20260901112226 | 71 | 112 | 0.0 | 0.0 | 0.00 | 0.01 | 0.01 | 94 | 1016.5 |
| 20260901111716 | 71 | 112 | 0.0 | 0.0 | 0.00 | 0.01 | 0.01 | 94 | 1016.5 |
| 20260901110952 | 71 | 112 | 0.0 | 0.0 | 0.00 | 0.01 | 0.01 | 94 | 1016.4 |
| 20260901110449 | 71 | 112 | 0.0 | 0.0 | 0.00 | 0.01 | 0.01 | 94 | 1016.3 |
| 20260901105948 | 71 | 112 | 0.0 | 0.0 | 0.00 | 0.01 | 0.01 | 94 | 1016.3 |
| 20260901105445 | 71 | 112 | 0.0 | 0.0 | 0.00 | 0.01 | 0.01 | 94 | 1016.3 |
| 20260901104947 | 71 | 112 | 0.0 | 0.0 | 0.00 | 0.01 | 0.01 | 94 | 1016.4 |
| 20260901104444 | 71 | 112 | 0.0 | 0.0 | 0.00 | 0.01 | 0.01 | 94 | 1016.3 |
| 20260901103944 | 71 | 112 | 0.0 | 0.0 | 0.00 | 0.01 | 0.01 | 94 | 1016.1 |
| 20260901103444 | 71 | 112 | 0.0 | 0.0 | 0.00 | 0.01 | 0.01 | 94 | 1016.1 |
| 20260901102941 | 71 | 112 | 0.0 | 0.0 | 0.00 | 0.01 | 0.01 | 94 | 1016.2 |
| 20260901102454 | 71 | 112 | 0.0 | 0.0 | 0.00 | 0.01 | 0.01 | 94 | 1016.3 |
| 20260901101942 | 71 | 112 | 0.0 | 0.0 | 0.00 | 0.01 | 0.01 | 94 | 1016.4 |
| 20260901101440 | 71 | 112 | 0.0 | 0.0 | 0.00 | 0.01 | 0.01 | 94 | 1016.4 |
| 20260901100938 | 71 | 112 | 0.0 | 0.0 | 0.00 | 0.01 | 0.01 | 94 | 1016.2 |
| 20260901100440 | 71 | 112 | 0.0 | 0.0 | 0.00 | 0.01 | 0.01 | 94 | 1016.1 |
| 20260901095941 | 71 | 112 | 0.0 | 0.0 | 0.00 | 0.01 | 0.01 | 94 | 1016.1 |
| 20260901095436 | 71 | 112 | 0.0 | 0.0 | 0.00 | 0.01 | 0.01 | 94 | 1016.2 |
| 20260901094939 | 71 | 112 | 0.0 | 0.0 | 0.00 | 0.01 | 0.01 | 94 | 1016.3 |
| 20260901094431 | 71 | 112 | 0.0 | 0.0 | 0.00 | 0.01 | 0.01 | 94 | 1016.3 |
| 20260901093927 | 71 | 112 | 0.0 | 0.0 | 0.00 | 0.01 | 0.01 | 94 | 1016.2 |
| 20260901093649 | 71 | 112 | 0.0 | 1.0 | 0.00 | 0.01 | 0.01 | 94 | 1016.2 |
| 20260901093144 | 71 | 112 | 0.0 | 0.0 | 0.00 | 0.01 | 0.01 | 94 | 1016.2 |
| 20260901093025 | 71 | 112 | 0.0 | 1.0 | 0.00 | 0.01 | 0.01 | 94 | 1016.2 |
| 20260901091922 | 71 | 112 | 0.0 | 0.0 | 0.00 | 0.01 | 0.01 | 94 | 1016.3 |
| 20260901091424 | 71 | 112 | 0.0 | 0.0 | 0.00 | 0.01 | 0.01 | 94 | 1016.2 |
| 20260901090919 | 71 | 112 | 0.0 | 0.0 | 0.00 | 0.01 | 0.01 | 94 | 1016.2 |
| 20260901090422 | 71 | 112 | 0.0 | 0.0 | 0.00 | 0.01 | 0.01 | 94 | 1016.3 |
| 20260901085918 | 71 | 112 | 0.0 | 0.0 | 0.00 | 0.02 | 0.01 | 94 | 1016.4 |
| 20260901085418 | 71 | 112 | 0.0 | 0.0 | 0.00 | 0.02 | 0.01 | 94 | 1016.4 |
| 20260901084920 | 71 | 112 | 0.0 | 0.0 | 0.00 | 0.02 | 0.01 | 94 | 1016.5 |
| 20260901084418 | 71 | 112 | 0.0 | 0.0 | 0.00 | 0.02 | 0.01 | 94 | 1016.5 |
| 20260901083917 | 71 | 112 | 0.0 | 0.0 | 0.00 | 0.02 | 0.01 | 94 | 1016.5 |
| 20260901083420 | 71 | 112 | 0.0 | 0.0 | 0.00 | 0.02 | 0.01 | 94 | 1016.6 |
| 20260901082919 | 71 | 112 | 0.0 | 0.0 | 0.00 | 0.02 | 0.01 | 94 | 1016.6 |
| 20260901082418 | 71 | 112 | 0.0 | 0.0 | 0.00 | 0.02 | 0.01 | 94 | 1016.6 |
| 20260901081913 | 71 | 112 | 0.0 | 0.0 | 0.00 | 0.02 | 0.01 | 94 | 1016.6 |
| 20260901081415 | 71 | 112 | 0.0 | 0.0 | 0.00 | 0.02 | 0.01 | 94 | 1016.5 |
| 20260901080914 | 71 | 112 | 0.0 | 0.0 | 0.00 | 0.02 | 0.01 | 94 | 1016.4 |
| 20260901080415 | 71 | 112 | 0.0 | 0.0 | 0.00 | 0.02 | 0.01 | 94 | 1016.4 |
| 20260901080134 | 71 | 112 | 0.0 | 0.0 | 0.00 | 0.02 | 0.01 | 94 | 1016.5 |
| 20260901075421 | 71 | 112 | 0.0 | 1.0 | 0.00 | 0.02 | 0.01 | 94 | 1016.5 |
| 20260901074917 | 71 | 112 | 0.0 | 1.0 | 0.00 | 0.02 | 0.01 | 94 | 1016.5 |
| 20260901074416 | 71 | 112 | 0.0 | 2.0 | 0.00 | 0.02 | 0.01 | 94 | 1016.4 |
| 20260901073914 | 71 | 112 | 0.0 | 2.0 | 0.00 | 0.02 | 0.01 | 94 | 1016.5 |
| 20260901073416 | 71 | 112 | 0.0 | 2.0 | 0.00 | 0.02 | 0.01 | 94 | 1016.4 |
| 20260901072913 | 71 | 112 | 0.0 | 2.0 | 0.00 | 0.02 | 0.01 | 94 | 1016.4 |
| 20260901072415 | 71 | 103 | 0.0 | 0.0 | 0.00 | 0.02 | 0.01 | 94 | 1016.3 |
| 20260901072234 | 71 | 103 | 0.0 | 0.0 | 0.00 | 0.02 | 0.01 | 94 | 1016.4 |
| 20260901072212 | 71 | 103 | 0.0 | 0.0 | 0.00 | 0.02 | 0.01 | 94 | 1016.4 |
| 20260901070906 | 71 | 103 | 0.0 | 0.0 | 0.00 | 0.02 | 0.01 | 94 | 1016.6 |
| 20260901070401 | 71 | 103 | 0.0 | 0.0 | 0.00 | 0.02 | 0.01 | 94 | 1016.6 |
| 20260901065900 | 71 | 103 | 0.0 | 0.0 | 0.00 | 0.02 | 0.01 | 94 | 1016.6 |
| 20260901065401 | 71 | 103 | 0.0 | 0.0 | 0.00 | 0.02 | 0.01 | 94 | 1016.7 |
| 20260901064859 | 71 | 103 | 0.0 | 0.0 | 0.00 | 0.02 | 0.01 | 94 | 1016.8 |
| 20260901064359 | 71 | 103 | 0.0 | 0.0 | 0.00 | 0.02 | 0.01 | 94 | 1016.9 |
| 20260901063900 | 71 | 103 | 0.0 | 0.0 | 0.00 | 0.02 | 0.01 | 93 | 1016.9 |
| 20260901063400 | 71 | 103 | 0.0 | 0.0 | 0.00 | 0.02 | 0.01 | 93 | 1016.9 |
| 20260901062859 | 71 | 103 | 0.0 | 0.0 | 0.00 | 0.02 | 0.01 | 93 | 1016.9 |
| 20260901061859 | 71 | 103 | 0.0 | 0.0 | 0.00 | 0.02 | 0.01 | 93 | 1017.0 |
| 20260901061359 | 71 | 103 | 0.0 | 0.0 | 0.00 | 0.02 | 0.01 | 93 | 1017.0 |
| 20260901060859 | 71 | 103 | 0.0 | 0.0 | 0.00 | 0.02 | 0.01 | 93 | 1017.1 |
| 20260901060401 | 71 | 103 | 0.0 | 0.0 | 0.00 | 0.02 | 0.01 | 94 | 1017.2 |
| 20260901055859 | 71 | 103 | 0.0 | 0.0 | 0.00 | 0.02 | 0.01 | 93 | 1017.2 |
| 20260901055401 | 71 | 103 | 0.0 | 0.0 | 0.00 | 0.02 | 0.01 | 94 | 1017.2 |
| 20260901054859 | 71 | 103 | 0.0 | 0.0 | 0.00 | 0.02 | 0.01 | 93 | 1017.3 |
| 20260901054618 | 71 | 103 | 0.0 | 0.0 | 0.00 | 0.02 | 0.01 | 93 | 1017.3 |
| 20260901053859 | 71 | 103 | 0.0 | 0.0 | 0.00 | 0.02 | 0.01 | 93 | 1017.3 |
| 20260901053359 | 71 | 103 | 0.0 | 0.0 | 0.00 | 0.02 | 0.01 | 93 | 1017.4 |
| 20260901052900 | 71 | 103 | 0.0 | 0.0 | 0.00 | 0.02 | 0.01 | 93 | 1017.4 |
| 20260901052419 | 71 | 103 | 0.0 | 0.0 | 0.00 | 0.02 | 0.01 | 93 | 1017.4 |
| 20260901051859 | 71 | 103 | 0.0 | 0.0 | 0.00 | 0.02 | 0.01 | 93 | 1017.5 |
| 20260901051400 | 71 | 103 | 0.0 | 0.0 | 0.00 | 0.02 | 0.01 | 93 | 1017.6 |
| 20260901050859 | 72 | 103 | 0.0 | 0.0 | 0.01 | 0.02 | 0.01 | 93 | 1017.5 |
| 20260901050359 | 72 | 103 | 0.0 | 0.0 | 0.01 | 0.02 | 0.01 | 93 | 1017.6 |
| 20260901045857 | 71 | 103 | 0.0 | 0.0 | 0.01 | 0.02 | 0.01 | 93 | 1017.6 |
| 20260901045355 | 71 | 103 | 0.0 | 0.0 | 0.01 | 0.02 | 0.01 | 93 | 1017.6 |
| 20260901044855 | 71 | 103 | 0.0 | 0.0 | 0.01 | 0.02 | 0.01 | 93 | 1017.8 |
| 20260901044353 | 72 | 103 | 0.0 | 0.0 | 0.01 | 0.02 | 0.01 | 93 | 1017.7 |
| 20260901043844 | 71 | 103 | 0.0 | 0.0 | 0.01 | 0.02 | 0.01 | 93 | 1017.7 |
| 20260901043338 | 71 | 103 | 0.0 | 0.0 | 0.01 | 0.02 | 0.01 | 93 | 1017.8 |
| 20260901042839 | 71 | 103 | 0.0 | 0.0 | 0.01 | 0.02 | 0.01 | 93 | 1017.8 |
| 20260901042821 | 71 | 103 | 0.0 | 0.0 | 0.01 | 0.02 | 0.01 | 93 | 1017.9 |
| 20260901041837 | 71 | 103 | 0.0 | 0.0 | 0.01 | 0.02 | 0.01 | 93 | 1017.9 |
| 20260901041559 | 71 | 103 | 0.0 | 0.0 | 0.01 | 0.02 | 0.01 | 93 | 1017.9 |
| 20260901040838 | 71 | 103 | 0.0 | 0.0 | 0.00 | 0.01 | 0.00 | 93 | 1018.1 |
| 20260901040337 | 71 | 103 | 0.0 | 0.0 | 0.00 | 0.01 | 0.00 | 93 | 1018.1 |
| 20260901035843 | 71 | 103 | 0.0 | 0.0 | 0.00 | 0.01 | 0.01 | 93 | 1018.1 |
| 20260901035608 | 71 | 103 | 0.0 | 0.0 | 0.00 | 0.01 | 0.01 | 93 | 1018.2 |
| 20260901035105 | 71 | 103 | 0.0 | 0.0 | 0.00 | 0.01 | 0.01 | 92 | 1018.1 |
| 20260901034335 | 71 | 103 | 0.0 | 0.0 | 0.00 | 0.01 | 0.01 | 92 | 1018.1 |
| 20260901033837 | 71 | 103 | 0.0 | 0.0 | 0.00 | 0.01 | 0.01 | 92 | 1018.1 |
| 20260901033336 | 71 | 103 | 0.0 | 0.0 | 0.00 | 0.01 | 0.01 | 93 | 1018.1 |
| 20260901032836 | 71 | 103 | 0.0 | 0.0 | 0.00 | 0.01 | 0.01 | 93 | 1018.3 |
| 20260901032335 | 71 | 103 | 0.0 | 0.0 | 0.00 | 0.01 | 0.01 | 93 | 1018.2 |
| 20260901031833 | 71 | 103 | 0.0 | 0.0 | 0.00 | 0.01 | 0.01 | 92 | 1018.2 |
| 20260901031600 | 71 | 103 | 0.0 | 0.0 | 0.00 | 0.01 | 0.01 | 92 | 1018.1 |
| 20260901030831 | 71 | 103 | 0.0 | 0.0 | 0.00 | 0.01 | 0.01 | 92 | 1018.1 |
| 20260901030327 | 71 | 103 | 0.0 | 0.0 | 0.00 | 0.01 | 0.01 | 92 | 1018.1 |
| 20260901025819 | 71 | 103 | 0.0 | 0.0 | 0.00 | 0.01 | 0.01 | 92 | 1018.1 |
| 20260901025316 | 71 | 103 | 0.0 | 0.0 | 0.00 | 0.01 | 0.01 | 92 | 1018.2 |
| 20260901024818 | 71 | 103 | 0.0 | 0.0 | 0.00 | 0.01 | 0.01 | 92 | 1018.2 |
| 20260901024542 | 71 | 103 | 0.0 | 0.0 | 0.00 | 0.01 | 0.01 | 92 | 1018.2 |
| 20260901023818 | 71 | 103 | 0.0 | 0.0 | 0.00 | 0.01 | 0.01 | 92 | 1018.2 |
| 20260901023317 | 71 | 103 | 0.0 | 0.0 | 0.00 | 0.01 | 0.01 | 92 | 1018.2 |
| 20260901022829 | 71 | 103 | 0.0 | 0.0 | 0.00 | 0.01 | 0.01 | 92 | 1018.1 |
| 20260901022317 | 71 | 103 | 0.0 | 0.0 | 0.00 | 0.01 | 0.01 | 92 | 1018.1 |
| 20260901022035 | 71 | 103 | 0.0 | 0.0 | 0.00 | 0.01 | 0.01 | 92 | 1018.1 |
| 20260901021316 | 71 | 103 | 0.0 | 0.0 | 0.00 | 0.02 | 0.01 | 92 | 1018.2 |
| 20260901020814 | 71 | 103 | 0.0 | 0.0 | 0.00 | 0.02 | 0.01 | 92 | 1018.1 |
| 20260901020314 | 71 | 103 | 0.0 | 0.0 | 0.00 | 0.02 | 0.01 | 92 | 1018.2 |
| 20260901015818 | 71 | 103 | 0.0 | 0.0 | 0.00 | 0.02 | 0.01 | 92 | 1018.2 |
| 20260901015548 | 71 | 103 | 0.0 | 0.0 | 0.00 | 0.02 | 0.01 | 92 | 1018.1 |
| 20260901014813 | 71 | 103 | 0.0 | 0.0 | 0.00 | 0.02 | 0.01 | 92 | 1018.2 |
| 20260901014533 | 72 | 103 | 0.0 | 0.0 | 0.00 | 0.02 | 0.01 | 92 | 1018.0 |
| 20260901013813 | 72 | 103 | 0.0 | 0.0 | 0.00 | 0.02 | 0.01 | 92 | 1018.0 |
| 20260901013540 | 72 | 103 | 0.0 | 1.0 | 0.00 | 0.02 | 0.01 | 92 | 1018.0 |
| 20260901012814 | 72 | 103 | 0.0 | 1.0 | 0.00 | 0.02 | 0.01 | 92 | 1018.0 |
| 20260901012315 | 72 | 103 | 0.0 | 0.0 | 0.00 | 0.02 | 0.01 | 91 | 1018.0 |
| 20260901011814 | 72 | 103 | 0.0 | 0.0 | 0.00 | 0.02 | 0.01 | 92 | 1018.0 |
| 20260901011537 | 72 | 103 | 0.0 | 0.0 | 0.00 | 0.02 | 0.01 | 91 | 1018.0 |
| 20260901011303 | 72 | 103 | 0.0 | 0.0 | 0.00 | 0.02 | 0.01 | 91 | 1018.0 |
| 20260901010328 | 72 | 103 | 0.0 | 0.0 | 0.00 | 0.02 | 0.01 | 91 | 1018.0 |
| 20260901005812 | 72 | 103 | 0.0 | 0.0 | 0.00 | 0.02 | 0.01 | 91 | 1018.1 |
| 20260901005312 | 73 | 103 | 0.0 | 0.0 | 0.00 | 0.02 | 0.01 | 91 | 1018.1 |
| 20260901004814 | 73 | 103 | 0.0 | 1.0 | 0.00 | 0.03 | 0.01 | 91 | 1018.0 |
| 20260901004312 | 73 | 103 | 0.0 | 1.0 | 0.00 | 0.05 | 0.01 | 91 | 1018.1 |
| 20260901004033 | 73 | 103 | 0.0 | 0.0 | 0.00 | 0.12 | 0.01 | 91 | 1017.9 |
| 20260901003310 | 73 | 103 | 0.0 | 0.0 | 0.00 | 0.19 | 0.01 | 90 | 1017.9 |
| 20260901003034 | 73 | 103 | 0.0 | 0.0 | 0.00 | 0.20 | 0.01 | 90 | 1017.8 |
| 20260901002309 | 74 | 103 | 0.0 | 0.0 | 0.00 | 0.21 | 0.01 | 90 | 1017.8 |
| 20260901001806 | 74 | 103 | 0.0 | 0.0 | 0.00 | 0.21 | 0.01 | 90 | 1017.8 |
| 20260901001304 | 74 | 104 | 0.0 | 0.0 | 0.00 | 0.21 | 0.01 | 89 | 1017.7 |
| 20260901001022 | 74 | 104 | 0.0 | 0.0 | 0.00 | 0.21 | 0.01 | 89 | 1017.7 |
| 20260901000303 | 74 | 104 | 0.0 | 0.0 | 0.00 | 0.21 | 0.01 | 89 | 1017.6 |
| 20260831235800 | 75 | 104 | 0.0 | 0.0 | 0.00 | 0.21 | 0.01 | 88 | 1017.6 |
| 20260831235306 | 75 | 104 | 0.0 | 0.0 | 0.00 | 0.21 | 0.01 | 88 | 1017.5 |
| 20260831234759 | 75 | 104 | 0.0 | 0.0 | 0.00 | 0.21 | 0.01 | 87 | 1017.5 |
| 20260831234731 | 76 | 104 | 0.0 | 3.0 | 0.00 | 0.21 | 0.01 | 86 | 1017.6 |
| 20260831234354 | 76 | 104 | 0.0 | 1.0 | 0.00 | 0.21 | 0.01 | 87 | 1017.6 |
| 20260831233259 | 76 | 104 | 0.0 | 3.0 | 0.00 | 0.21 | 0.01 | 86 | 1017.6 |
| 20260831233000 | 77 | 104 | 0.0 | 2.0 | 0.00 | 0.21 | 0.01 | 84 | 1017.6 |
| 20260831232851 | 77 | 104 | 0.0 | 2.0 | 0.00 | 0.21 | 0.01 | 85 | 1017.6 |
| 20260831231753 | 78 | 104 | 0.0 | 0.0 | 0.00 | 0.21 | 0.01 | 83 | 1017.7 |
| 20260831231250 | 78 | 104 | 0.0 | 1.0 | 0.00 | 0.21 | 0.01 | 82 | 1017.8 |
| 20260831231007 | 78 | 104 | 0.0 | 2.0 | 0.00 | 0.21 | 0.01 | 81 | 1017.9 |
| 20260831230245 | 78 | 104 | 1.0 | 3.0 | 0.00 | 0.21 | 0.01 | 81 | 1017.8 |
| 20260831225955 | 78 | 104 | 0.0 | 3.0 | 0.00 | 0.21 | 0.01 | 80 | 1017.9 |
| 20260831225839 | 78 | 104 | 1.0 | 3.0 | 0.00 | 0.21 | 0.01 | 82 | 1017.8 |
| 20260831225005 | 78 | 104 | 1.0 | 2.0 | 0.00 | 0.21 | 0.01 | 81 | 1018.0 |
| 20260831224244 | 79 | 104 | 1.0 | 4.0 | 0.00 | 0.21 | 0.01 | 80 | 1018.0 |
| 20260831224005 | 79 | 104 | 1.0 | 4.0 | 0.00 | 0.21 | 0.01 | 79 | 1018.0 |
| 20260831223516 | 79 | 103 | 1.0 | 4.0 | 0.00 | 0.21 | 0.01 | 79 | 1018.1 |
| 20260831222746 | 79 | 99 | 1.0 | 4.0 | 0.00 | 0.21 | 0.01 | 78 | 1018.2 |
| 20260831222244 | 80 | 99 | 1.0 | 3.0 | 0.00 | 0.21 | 0.01 | 78 | 1018.2 |
| 20260831221744 | 80 | 99 | 1.0 | 3.0 | 0.00 | 0.21 | 0.01 | 78 | 1018.2 |
| 20260831221240 | 80 | 99 | 1.0 | 3.0 | 0.00 | 0.21 | 0.01 | 77 | 1018.2 |
| 20260831220732 | 80 | 99 | 1.0 | 3.0 | 0.00 | 0.21 | 0.01 | 79 | 1018.3 |
| 20260831220235 | 79 | 99 | 1.0 | 3.0 | 0.00 | 0.21 | 0.01 | 78 | 1018.2 |
| 20260831215732 | 79 | 99 | 1.0 | 4.0 | 0.00 | 0.21 | 0.01 | 78 | 1018.2 |
| 20260831215233 | 79 | 99 | 1.0 | 4.0 | 0.00 | 0.21 | 0.01 | 78 | 1018.2 |
| 20260831214730 | 80 | 98 | 1.0 | 3.0 | 0.00 | 0.21 | 0.01 | 78 | 1018.3 |
| 20260831214231 | 79 | 98 | 1.0 | 3.0 | 0.00 | 0.21 | 0.01 | 78 | 1018.2 |
| 20260831213732 | 79 | 98 | 1.0 | 4.0 | 0.00 | 0.21 | 0.01 | 77 | 1018.2 |
| 20260831213230 | 79 | 98 | 1.0 | 4.0 | 0.00 | 0.21 | 0.01 | 77 | 1018.3 |
| 20260831212727 | 80 | 98 | 1.0 | 4.0 | 0.00 | 0.21 | 0.01 | 77 | 1018.4 |
| 20260831212227 | 80 | 98 | 1.0 | 4.0 | 0.00 | 0.21 | 0.01 | 76 | 1018.4 |
| 20260831211728 | 80 | 98 | 0.0 | 0.0 | 0.00 | 0.21 | 0.01 | 77 | 1018.4 |
| 20260831211714 | 80 | 98 | 0.0 | 0.0 | 0.00 | 0.21 | 0.01 | 77 | 1018.5 |
| 20260831210726 | 79 | 98 | 0.0 | 0.0 | 0.00 | 0.21 | 0.01 | 76 | 1018.5 |
| 20260831210226 | 79 | 98 | 0.0 | 0.0 | 0.00 | 0.21 | 0.01 | 76 | 1018.5 |
| 20260831205724 | 80 | 98 | 0.0 | 0.0 | 0.00 | 0.21 | 0.01 | 75 | 1018.6 |
| 20260831205224 | 80 | 98 | 0.0 | 0.0 | 0.00 | 0.21 | 0.01 | 77 | 1018.6 |
| 20260831204724 | 80 | 98 | 0.0 | 0.0 | 0.00 | 0.21 | 0.01 | 74 | 1018.6 |
| 20260831204222 | 80 | 98 | 0.0 | 0.0 | 0.00 | 0.21 | 0.01 | 77 | 1018.6 |
| 20260831203724 | 80 | 98 | 0.0 | 0.0 | 0.00 | 0.21 | 0.01 | 75 | 1018.6 |
| 20260831203222 | 80 | 98 | 0.0 | 0.0 | 0.00 | 0.21 | 0.01 | 76 | 1018.6 |
| 20260831202721 | 80 | 98 | 0.0 | 0.0 | 0.00 | 0.21 | 0.01 | 74 | 1018.7 |
| 20260831202222 | 80 | 98 | 0.0 | 2.0 | 0.00 | 0.21 | 0.01 | 73 | 1018.7 |
| 20260831202210 | 80 | 97 | 1.0 | 3.0 | 0.00 | 0.21 | 0.01 | 74 | 1018.7 |
| 20260831201440 | 80 | 97 | 2.0 | 4.0 | 0.00 | 0.21 | 0.01 | 74 | 1018.8 |
| 20260831200718 | 80 | 97 | 2.0 | 4.0 | 0.00 | 0.21 | 0.01 | 76 | 1018.9 |
| 20260831200217 | 81 | 97 | 2.0 | 3.0 | 0.00 | 0.21 | 0.01 | 71 | 1019.0 |
| 20260831195717 | 81 | 97 | 1.0 | 3.0 | 0.00 | 0.21 | 0.01 | 74 | 1019.0 |
| 20260831195217 | 80 | 96 | 1.0 | 3.0 | 0.00 | 0.21 | 0.01 | 73 | 1019.0 |
| 20260831194731 | 80 | 96 | 1.0 | 3.0 | 0.00 | 0.21 | 0.01 | 73 | 1019.0 |
| 20260831194216 | 80 | 96 | 1.0 | 3.0 | 0.00 | 0.21 | 0.01 | 73 | 1019.1 |
| 20260831193713 | 80 | 96 | 1.0 | 3.0 | 0.00 | 0.21 | 0.01 | 75 | 1019.1 |
| 20260831193213 | 80 | 96 | 1.0 | 4.0 | 0.00 | 0.21 | 0.01 | 73 | 1019.1 |
| 20260831192726 | 80 | 96 | 1.0 | 4.0 | 0.00 | 0.21 | 0.01 | 74 | 1019.1 |
| 20260831192212 | 80 | 96 | 1.0 | 3.0 | 0.00 | 0.21 | 0.01 | 74 | 1019.2 |
| 20260831191712 | 80 | 95 | 1.0 | 3.0 | 0.00 | 0.21 | 0.01 | 72 | 1019.2 |
| 20260831191443 | 80 | 94 | 1.0 | 3.0 | 0.00 | 0.21 | 0.01 | 74 | 1019.3 |
| 20260831190727 | 80 | 95 | 1.0 | 2.0 | 0.00 | 0.21 | 0.01 | 75 | 1019.4 |
| 20260831190212 | 80 | 94 | 1.0 | 6.0 | 0.00 | 0.21 | 0.01 | 73 | 1019.5 |
| 20260831185715 | 80 | 95 | 1.0 | 6.0 | 0.00 | 0.21 | 0.01 | 73 | 1019.6 |
| 20260831185429 | 80 | 88 | 1.0 | 4.0 | 0.00 | 0.21 | 0.01 | 75 | 1019.6 |